THORAD DELTA 1 DEB, 8400

Orbit data source: Space-Track

THORAD DELTA 1 DEB, 8400 is space debris in SSO originally from a launch on Fri, 15 Nov 1974 UTC launched from the Air Force Western Test Range (AFWTR). Debris objects in space refer to the collection of defunct objects orbiting the Earth. Examples of debris include non-operational satellites, rocket bodies, and fragments generated from explosions, collisions, or faulty payload assembly.

Loading next visibility...
Identifier
8400, 1974-089CC
Orbit
SSO
Country
Flag of USUS
Related business
Manufacturer
Unknown
Mission
Spacecraft
Bus & Motor
Unknown
Mass
Unknown
Launch date (UTC)
1974-11-15 (51 years ago)
Launch vehicle
Unknown
Launch site
Air Force Western Test Range (AFWTR)
Object type
Payload
Rocket body
Debris
Shape & HBR
Unknown shape, 0.1 m
Radar Cross Section
Small (<0.1 m²)

Expand to show TLE details & history
Last TLE update: 1 day ago

TLE from 1 day ago
0 THORAD DELTA 1 DEB
1 08400U 74089CC  25288.36128042  .00000084  00000-0  89692-3 0  9990
2 08400 101.7593 252.9538 0050340 277.4575 242.5834 12.44899948314614
Epoch: 2025-10-15T08:40Z
TLE epoch observation values (Epoch: 2025-10-15T08:40:14.628Z)
Latitude
20.0265°
Longitude
-76.91331°
Altitude
1,506.471 km
Speed
7.105 km/s
True Right ascension
05h 09m 08s
True Declination
19° 55' 36"
Sunlit
Object was in daylight at epoch
Visualization orbit readout
Latitude
Unknown
Longitude
Unknown
Altitude
Unknown
Speed
Unknown
Apparent Right ascension
Unknown
Apparent Declination
Unknown
Sunlit
N/A
Visualization observer readout
Local Sidereal Time
03:39:30
Azimuth
Unknown
Elevation
Unknown
Doppler factor
Unknown
Orbital elements
Apogee altitude
1,523.029 km
Perigee altitude
1,443.879 km
Semi-major axis
7,861.591 km
Eccentricity
0.00503
Inclination
101.7593°
RAAN
252.9538°
Arg. of periapsis
277.4575°
True anomaly
242.07282°
Mean anomaly
242.5834°
Eccentric anomaly
242.32796°
Mean motion
3.11371 °/min
Orbital period
115.62 mins
BSTAR
0.00089692
Loading maneuver chart data...
Computing Atmospheric mass density...

Documentation

Showing up to 5 results
|